Sitka, AK

6:48 AM AKDT on March 27, 2017 (GMT -0800)
Sitka Rocky Gutierrez

Weather History for PASI - April, 2013

Change the Weather History Date:

Monday, April 1, 2013

  Actual Average Record
Temperature  
Mean Temperature 38 °F -  
Max Temperature 42 °F 46 °F 64 °F (1987)
Min Temperature 35 °F 35 °F 18 °F (2007)
Degree Days  
Heating Degree Days 27    
Moisture  
Dew Point 37 °F    
Average Humidity 92    
Maximum Humidity 100    
Minimum Humidity 79    
Precipitation  
Precipitation 0.43 in - - ()
Sea Level Pressure  
Sea Level Pressure 29.97 in    
Wind  
Wind Speed 7 mph (SW)    
Max Wind Speed 17 mph    
Max Gust Speed 24 mph    
Visibility 8 miles    
Events Rain , Snow , Thunderstorm    
Averages and records for this station are not official NWS values.
T = Trace of Precipitation, MM = Missing Value Source: NWS Daily Summary

Daily Weather History Graph

Daily Weather History Graph

Search for Another Location

Airport or City:

Trip Planner

Search our weather history database for the weather conditions in past years. The results will help you decide how hot, cold, wet, or windy it might be!

Date:

Astronomy

Apr. 01, 2013 Rise Set
Actual Time 6:29 AM AKDT 7:42 PM AKDT
Civil Twilight 5:50 AM AKDT 8:21 PM AKDT
Nautical Twilight 5:02 AM AKDT 9:09 PM AKDT
Astronomical Twilight 4:08 AM AKDT 10:04 PM AKDT
Moon 1:51 AM AKDT (4/1) 9:29 AM AKDT (4/1)
Length of Visible Light 14h 31m
Length of Day
13h 12m
Waning Gibbous, 65% of the Moon is Illuminated
Apr 1
Waning Gibbous
Apr 2
Last Quarter
Apr 10
New
Apr 18
First Quarter
Apr 25
Full

Hourly Weather History & Observations

Time (AKDT) Temp. Windchill Dew Point Humidity Pressure Visibility Wind Dir Wind Speed Gust Speed Precip Events Conditions
12:53 AM 39.9 °F 37.8 °F 39.0 °F 97% 30.02 in 10.0 mi East 3.5 mph - N/A   Overcast
1:00 AM 39.2 °F - 37.4 °F 93% 30.02 in 10.0 mi Calm Calm - N/A   Overcast
1:12 AM 39.2 °F 35.9 °F 37.4 °F 93% 30.02 in 10.0 mi ESE 4.6 mph - N/A   Overcast
1:53 AM 39.9 °F 37.8 °F 39.0 °F 97% 30.01 in 10.0 mi ESE 3.5 mph - N/A   Overcast
2:38 AM 39.2 °F 35.9 °F 37.4 °F 93% 29.99 in 10.0 mi East 4.6 mph - N/A   Overcast
2:53 AM 39.9 °F 37.8 °F 37.9 °F 93% 29.99 in 10.0 mi ESE 3.5 mph - 0.00 in Rain Light Rain
3:53 AM 39.0 °F 36.8 °F 37.9 °F 96% 29.97 in 10.0 mi ESE 3.5 mph - 0.00 in   Overcast
4:53 AM 39.0 °F 35.7 °F 39.0 °F 100% 29.95 in 4.0 mi East 4.6 mph - 0.02 in Rain Light Rain
5:53 AM 39.0 °F 34.0 °F 39.0 °F 100% 29.93 in 7.0 mi SSE 6.9 mph - 0.01 in Rain Light Rain
6:53 AM 39.9 °F 35.1 °F 37.9 °F 93% 29.90 in 8.0 mi ESE 6.9 mph - 0.00 in Rain Light Rain
7:53 AM 41.0 °F 35.2 °F 37.9 °F 89% 29.88 in 7.0 mi ESE 9.2 mph - 0.02 in Rain Light Rain
8:53 AM 41.0 °F 35.2 °F 39.9 °F 96% 29.88 in 6.0 mi South 9.2 mph - 0.06 in Rain Light Rain
9:53 AM 41.0 °F 32.5 °F 39.0 °F 93% 29.88 in 5.0 mi South 17.3 mph 23.0 mph 0.08 in Rain Light Rain
10:53 AM 39.9 °F 32.1 °F 37.9 °F 93% 29.88 in 4.0 mi South 13.8 mph 23.0 mph 0.07 in Rain Rain
11:03 AM 39.2 °F 33.0 °F 37.4 °F 93% 29.88 in 3.0 mi SE 9.2 mph - 0.02 in Rain Rain
11:12 AM 39.2 °F 33.0 °F 37.4 °F 93% 29.88 in 3.0 mi SSE 9.2 mph - 0.04 in Rain Rain
11:15 AM 39.2 °F 34.2 °F 37.4 °F 93% 29.88 in 1.5 mi South 6.9 mph - 0.06 in Rain Rain
11:24 AM 41.0 °F 33.5 °F 41.0 °F 100% 29.89 in 2.5 mi South 13.8 mph 18.4 mph 0.09 in Rain Light Rain
11:28 AM 39.2 °F 32.0 °F 39.2 °F 100% 29.89 in 3.0 mi WSW 11.5 mph 19.6 mph 0.10 in Rain Light Rain
11:35 AM 39.2 °F 32.5 °F 39.2 °F 100% 29.89 in 5.0 mi WSW 10.4 mph 19.6 mph 0.11 in Rain Light Rain
11:47 AM 39.2 °F 32.5 °F 39.2 °F 100% 29.90 in 9.0 mi WSW 10.4 mph - 0.11 in Rain Light Rain
11:53 AM 39.0 °F 31.4 °F 37.9 °F 96% 29.90 in 9.0 mi West 12.7 mph - 0.11 in Rain Light Rain
12:01 PM 39.2 °F 31.2 °F 37.4 °F 93% 29.90 in 10.0 mi WSW 13.8 mph 24.2 mph 0.01 in   Overcast
12:53 PM 39.9 °F 33.4 °F 37.9 °F 93% 29.92 in 10.0 mi WSW 10.4 mph 17.3 mph 0.01 in   Overcast
1:00 PM 39.2 °F 32.5 °F 37.4 °F 93% 29.92 in 10.0 mi WSW 10.4 mph - N/A   Overcast
1:08 PM 39.2 °F 32.5 °F 37.4 °F 93% 29.92 in 10.0 mi WSW 10.4 mph - N/A   Overcast
1:37 PM 37.4 °F 29.8 °F 37.4 °F 100% 29.94 in 6.0 mi WSW 11.5 mph 20.7 mph 0.00 in Rain Light Rain
1:53 PM 39.0 °F 32.3 °F 37.0 °F 93% 29.94 in 7.0 mi WSW 10.4 mph 18.4 mph 0.01 in Rain Light Rain
2:05 PM 39.2 °F 32.0 °F 37.4 °F 93% 29.94 in 10.0 mi WSW 11.5 mph - 0.00 in Rain Light Rain
2:53 PM 39.0 °F 31.4 °F 36.0 °F 89% 29.95 in 10.0 mi SW 12.7 mph - 0.00 in Rain Light Rain
3:15 PM 37.4 °F 29.8 °F 35.6 °F 93% 29.96 in 9.0 mi WSW 11.5 mph 20.7 mph 0.01 in Rain Light Rain
3:44 PM 39.2 °F 32.5 °F 37.4 °F 93% 29.97 in 10.0 mi WSW 10.4 mph - 0.01 in   Overcast
3:53 PM 39.9 °F 32.5 °F 37.9 °F 93% 29.97 in 10.0 mi WSW 12.7 mph - 0.01 in Rain Light Rain
4:00 PM 39.2 °F 30.8 °F 37.4 °F 93% 29.97 in 10.0 mi West 15.0 mph - 0.00 in   Overcast
4:53 PM 39.0 °F 31.0 °F 35.1 °F 86% 29.99 in 10.0 mi West 13.8 mph - 0.00 in Rain Light Rain
5:01 PM 39.2 °F 31.2 °F 35.6 °F 87% 29.99 in 10.0 mi WSW 13.8 mph - 0.00 in Rain Light Rain
5:24 PM 39.2 °F 33.6 °F 35.6 °F 87% 29.99 in 8.0 mi West 8.1 mph - 0.01 in Rain Light Rain
5:33 PM 39.2 °F 33.0 °F 35.6 °F 87% 30.00 in 10.0 mi West 9.2 mph - 0.01 in   Mostly Cloudy
5:53 PM 39.9 °F 32.1 °F 35.1 °F 83% 30.00 in 10.0 mi WSW 13.8 mph - 0.01 in   Mostly Cloudy
6:45 PM 39.2 °F 34.2 °F 33.8 °F 81% 30.01 in 10.0 mi WSW 6.9 mph - 0.00 in   Overcast
6:53 PM 39.0 °F 31.8 °F 35.1 °F 86% 30.01 in 8.0 mi WSW 11.5 mph - 0.00 in Rain Light Rain
7:12 PM 37.4 °F 33.8 °F 35.6 °F 93% 30.01 in 10.0 mi WSW 4.6 mph - 0.00 in   Mostly Cloudy
7:53 PM 37.9 °F 35.5 °F 33.1 °F 83% 30.03 in 10.0 mi West 3.5 mph - 0.01 in   Mostly Cloudy
8:16 PM 39.2 °F 35.9 °F 33.8 °F 81% 30.04 in 10.0 mi West 4.6 mph - N/A Thunderstorm Thunderstorm
8:45 PM 37.4 °F 29.8 °F 33.8 °F 87% 30.05 in 10.0 mi WSW 11.5 mph - 0.00 in Rain Light Rain
8:53 PM 37.9 °F 32.7 °F 33.1 °F 83% 30.05 in 10.0 mi West 6.9 mph - 0.00 in   Mostly Cloudy
9:53 PM 39.0 °F 34.8 °F 33.1 °F 79% 30.06 in 10.0 mi WSW 5.8 mph - 0.00 in   Overcast
10:51 PM 35.6 °F 28.6 °F 32.0 °F 87% 30.08 in 4.0 mi WNW 9.2 mph - 0.01 in Snow Light Snow
10:53 PM 36.0 °F 29.6 °F 32.0 °F 86% 30.08 in 4.0 mi WNW 8.1 mph - 0.01 in Snow Light Snow
11:28 PM 37.4 °F 31.4 °F 33.8 °F 87% 30.08 in 10.0 mi West 8.1 mph - 0.00 in Rain Light Rain
11:53 PM 37.0 °F - 33.1 °F 86% 30.09 in 10.0 mi Calm Calm - 0.00 in   Overcast